Time,TemperatureF,DewpointF,PressureIn,WindDirection,WindDirectionDegrees,WindSpeedMPH,WindSpeedGustMPH,Humidity,HourlyPrecipIn,Conditions,Clouds,dailyrainin,SolarRadiationWatts/m^2,SoftwareType,DateUTC
2013-03-27 00:00:00,40.3,27.5,30.11,NW,306,0.0,0.0,60,0.00,,---,0.00,0.00,VWS V14.01,2013-03-27 04:00:00,
2013-03-27 00:05:00,40.2,27.4,30.11,West,265,1.0,5.0,60,0.00,,---,0.00,0.00,VWS V14.01,2013-03-27 04:05:00,
2013-03-27 00:10:00,40.2,27.4,30.11,NE,44,4.0,11.0,60,0.00,,---,0.00,0.00,VWS V14.01,2013-03-27 04:10:00,
2013-03-27 00:15:00,40.2,27.8,30.11,NNE,15,0.0,11.0,61,0.00,,---,0.00,0.00,VWS V14.01,2013-03-27 04:15:00,
2013-03-27 00:20:00,40.1,27.8,30.11,North,9,4.0,11.0,61,0.00,,---,0.00,0.00,VWS V14.01,2013-03-27 04:20:00,
2013-03-27 00:25:00,40.1,27.8,30.11,NNE,18,0.0,11.0,61,0.00,,---,0.00,0.00,VWS V14.01,2013-03-27 04:25:00,
2013-03-27 00:30:00,40.0,27.6,30.11,NNW,327,0.0,1.0,61,0.00,,---,0.00,0.00,VWS V14.01,2013-03-27 04:30:00,
2013-03-27 00:35:00,40.0,27.6,30.11,WNW,293,2.0,7.0,61,0.00,,---,0.00,0.00,VWS V14.01,2013-03-27 04:35:00,
2013-03-27 00:40:00,39.9,27.6,30.11,West,261,0.0,7.0,61,0.00,,---,0.00,0.00,VWS V14.01,2013-03-27 04:40:00,
2013-03-27 00:45:00,39.8,27.5,30.11,NNW,336,4.0,7.0,61,0.00,,---,0.00,0.00,VWS V14.01,2013-03-27 04:45:00,
2013-03-27 00:50:00,39.8,27.5,30.11,NNW,338,0.0,9.0,61,0.00,,---,0.00,0.00,VWS V14.01,2013-03-27 04:50:00,
2013-03-27 00:55:00,39.7,27.4,30.11,NNW,341,0.0,9.0,61,0.00,,---,0.00,0.00,VWS V14.01,2013-03-27 04:55:00,
2013-03-27 01:00:00,39.7,27.4,30.12,ENE,69,0.0,2.0,61,0.00,,---,0.00,0.00,VWS V14.01,2013-03-27 05:00:00,
2013-03-27 01:05:00,39.5,27.6,30.12,WNW,292,2.0,6.0,62,0.00,,---,0.00,0.00,VWS V14.01,2013-03-27 05:05:00,
2013-03-27 01:10:00,39.4,27.5,30.11,NNW,332,0.0,6.0,62,0.00,,---,0.00,0.00,VWS V14.01,2013-03-27 05:10:00,
2013-03-27 01:15:00,39.3,27.4,30.11,NW,326,0.0,6.0,62,0.00,,---,0.00,0.00,VWS V14.01,2013-03-27 05:15:00,
2013-03-27 01:20:00,39.1,27.2,30.11,North,355,0.0,6.0,62,0.00,,---,0.00,0.00,VWS V14.01,2013-03-27 05:20:00,
2013-03-27 01:25:00,39.0,27.5,30.11,NW,324,4.0,6.0,63,0.00,,---,0.00,0.00,VWS V14.01,2013-03-27 05:25:00,
2013-03-27 01:30:00,38.9,27.4,30.12,NNW,348,1.0,4.0,63,0.00,,---,0.00,0.00,VWS V14.01,2013-03-27 05:30:00,
2013-03-27 01:35:00,38.8,27.3,30.11,NNW,341,0.0,5.0,63,0.00,,---,0.00,0.00,VWS V14.01,2013-03-27 05:35:00,
2013-03-27 01:40:00,38.8,27.3,30.11,NW,322,1.0,7.0,63,0.00,,---,0.00,0.00,VWS V14.01,2013-03-27 05:40:00,
2013-03-27 01:45:00,38.8,27.7,30.11,WNW,294,2.0,7.0,64,0.00,,---,0.00,0.00,VWS V14.01,2013-03-27 05:45:00,
2013-03-27 01:50:00,38.8,27.7,30.11,NW,311,2.0,7.0,64,0.00,,---,0.00,0.00,VWS V14.01,2013-03-27 05:50:00,
2013-03-27 01:55:00,38.8,27.7,30.12,NNW,335,1.0,7.0,64,0.00,,---,0.00,0.00,VWS V14.01,2013-03-27 05:55:00,
2013-03-27 02:00:00,38.8,27.7,30.11,WNW,288,1.0,1.0,64,0.00,,---,0.00,0.00,VWS V14.01,2013-03-27 06:00:00,
2013-03-27 02:05:00,38.7,27.6,30.11,West,266,2.0,7.0,64,0.00,,---,0.00,0.00,VWS V14.01,2013-03-27 06:05:00,
2013-03-27 02:10:00,38.7,27.6,30.11,NNW,345,0.0,7.0,64,0.00,,---,0.00,0.00,VWS V14.01,2013-03-27 06:10:00,
2013-03-27 02:15:00,38.7,27.6,30.11,NW,313,0.0,7.0,64,0.00,,---,0.00,0.00,VWS V14.01,2013-03-27 06:15:00,
2013-03-27 02:20:00,38.5,27.4,30.11,NNW,333,1.0,7.0,64,0.00,,---,0.00,0.00,VWS V14.01,2013-03-27 06:20:00,
2013-03-27 02:25:00,38.5,27.4,30.11,NW,321,1.0,7.0,64,0.00,,---,0.00,0.00,VWS V14.01,2013-03-27 06:25:00,
2013-03-27 02:30:00,38.4,27.7,30.11,WNW,285,1.0,2.0,65,0.00,,---,0.00,0.00,VWS V14.01,2013-03-27 06:30:00,
2013-03-27 02:35:00,38.3,27.6,30.11,NNW,344,1.0,5.0,65,0.00,,---,0.00,0.00,VWS V14.01,2013-03-27 06:35:00,
2013-03-27 02:40:00,38.2,27.5,30.11,North,355,3.0,6.0,65,0.00,,---,0.00,0.00,VWS V14.01,2013-03-27 06:40:00,
2013-03-27 02:45:00,38.1,27.4,30.11,NNE,13,1.0,6.0,65,0.00,,---,0.00,0.00,VWS V14.01,2013-03-27 06:45:00,
2013-03-27 02:50:00,38.1,27.4,30.11,NNW,327,1.0,6.0,65,0.00,,---,0.00,0.00,VWS V14.01,2013-03-27 06:50:00,
2013-03-27 02:55:00,38.0,27.3,30.11,West,277,2.0,6.0,65,0.00,,---,0.00,0.00,VWS V14.01,2013-03-27 06:55:00,
2013-03-27 03:00:00,38.0,27.3,30.11,North,9,2.0,5.0,65,0.00,,---,0.00,0.00,VWS V14.01,2013-03-27 07:00:00,
2013-03-27 03:05:00,37.9,27.6,30.11,West,267,0.0,5.0,66,0.00,,---,0.00,0.00,VWS V14.01,2013-03-27 07:05:00,
2013-03-27 03:10:00,37.8,27.5,30.11,NW,309,1.0,6.0,66,0.00,,---,0.00,0.00,VWS V14.01,2013-03-27 07:10:00,
2013-03-27 03:15:00,37.8,27.5,30.11,SW,219,1.0,6.0,66,0.00,,---,0.00,0.00,VWS V14.01,2013-03-27 07:15:00,
2013-03-27 03:20:00,37.7,27.4,30.11,NW,306,0.0,6.0,66,0.00,,---,0.00,0.00,VWS V14.01,2013-03-27 07:20:00,
2013-03-27 03:25:00,37.6,27.6,30.11,West,261,1.0,6.0,67,0.00,,---,0.00,0.00,VWS V14.01,2013-03-27 07:25:00,
2013-03-27 03:30:00,37.5,27.5,30.11,North,9,5.0,5.0,67,0.00,,---,0.00,0.00,VWS V14.01,2013-03-27 07:30:00,
2013-03-27 03:35:00,37.4,27.5,30.11,West,271,1.0,5.0,67,0.00,,---,0.00,0.00,VWS V14.01,2013-03-27 07:35:00,
2013-03-27 03:40:00,37.3,27.4,30.11,NNE,24,1.0,5.0,67,0.00,,---,0.00,0.00,VWS V14.01,2013-03-27 07:40:00,
2013-03-27 03:45:00,37.3,27.4,30.11,NE,39,0.0,5.0,67,0.00,,---,0.00,0.00,VWS V14.01,2013-03-27 07:45:00,
2013-03-27 03:50:00,37.2,27.3,30.11,North,10,5.0,6.0,67,0.00,,---,0.00,0.00,VWS V14.01,2013-03-27 07:50:00,
2013-03-27 03:55:00,37.2,27.6,30.11,WSW,250,0.0,6.0,68,0.00,,---,0.00,0.00,VWS V14.01,2013-03-27 07:55:00,
2013-03-27 04:00:00,37.1,27.5,30.11,NNW,337,1.0,6.0,68,0.00,,---,0.00,0.00,VWS V14.01,2013-03-27 08:00:00,
2013-03-27 04:05:00,37.1,27.5,30.11,SW,234,2.0,6.0,68,0.00,,---,0.00,0.00,VWS V14.01,2013-03-27 08:05:00,
2013-03-27 04:10:00,37.0,27.4,30.11,WSW,244,2.0,7.0,68,0.00,,---,0.00,0.00,VWS V14.01,2013-03-27 08:10:00,
2013-03-27 04:15:00,37.0,27.4,30.11,NNW,331,0.0,7.0,68,0.00,,---,0.00,0.00,VWS V14.01,2013-03-27 08:15:00,
2013-03-27 04:20:00,36.9,27.7,30.11,West,271,0.0,7.0,69,0.00,,---,0.00,0.00,VWS V14.01,2013-03-27 08:20:00,
2013-03-27 04:25:00,36.9,27.7,30.11,NNE,20,1.0,10.0,69,0.00,,---,0.00,0.00,VWS V14.01,2013-03-27 08:25:00,
2013-03-27 04:30:00,36.8,27.6,30.11,NW,304,3.0,5.0,69,0.00,,---,0.00,0.00,VWS V14.01,2013-03-27 08:30:00,
2013-03-27 04:35:00,36.6,27.8,30.11,NNW,338,5.0,6.0,70,0.00,,---,0.00,0.00,VWS V14.01,2013-03-27 08:35:00,
2013-03-27 04:40:00,36.6,27.8,30.11,NW,306,1.0,6.0,70,0.00,,---,0.00,0.00,VWS V14.01,2013-03-27 08:40:00,
2013-03-27 04:45:00,36.5,27.7,30.12,NNW,336,1.0,6.0,70,0.00,,---,0.00,0.00,VWS V14.01,2013-03-27 08:45:00,
2013-03-27 04:50:00,36.4,27.6,30.11,WNW,298,2.0,6.0,70,0.00,,---,0.00,0.00,VWS V14.01,2013-03-27 08:50:00,
2013-03-27 04:55:00,36.4,27.9,30.12,NNE,13,5.0,6.0,71,0.00,,---,0.00,0.00,VWS V14.01,2013-03-27 08:55:00,
2013-03-27 05:00:00,36.3,27.5,30.12,NNW,340,3.0,6.0,70,0.00,,---,0.00,0.00,VWS V14.01,2013-03-27 09:00:00,
2013-03-27 05:05:00,36.3,27.8,30.12,North,5,6.0,8.0,71,0.00,,---,0.00,0.00,VWS V14.01,2013-03-27 09:05:00,
2013-03-27 05:10:00,36.2,27.7,30.12,NNW,338,0.0,8.0,71,0.00,,---,0.00,0.00,VWS V14.01,2013-03-27 09:10:00,
2013-03-27 05:15:00,36.2,27.7,30.12,WNW,288,2.0,8.0,71,0.00,,---,0.00,0.00,VWS V14.01,2013-03-27 09:15:00,
2013-03-27 05:20:00,36.1,27.6,30.12,North,5,1.0,8.0,71,0.00,,---,0.00,0.00,VWS V14.01,2013-03-27 09:20:00,
2013-03-27 05:25:00,36.0,27.5,30.12,North,11,2.0,8.0,71,0.00,,---,0.00,0.00,VWS V14.01,2013-03-27 09:25:00,
2013-03-27 05:30:00,35.9,27.4,30.12,WNW,286,2.0,2.0,71,0.00,,---,0.00,0.00,VWS V14.01,2013-03-27 09:30:00,
2013-03-27 05:35:00,35.9,27.4,30.12,NW,313,1.0,2.0,71,0.00,,---,0.00,0.00,VWS V14.01,2013-03-27 09:35:00,
2013-03-27 05:40:00,35.8,27.7,30.13,WNW,288,3.0,6.0,72,0.00,,---,0.00,0.00,VWS V14.01,2013-03-27 09:40:00,
2013-03-27 05:45:00,35.7,27.6,30.13,NW,323,4.0,7.0,72,0.00,,---,0.00,0.00,VWS V14.01,2013-03-27 09:45:00,
2013-03-27 05:50:00,35.7,27.6,30.13,NW,315,5.0,7.0,72,0.00,,---,0.00,0.00,VWS V14.01,2013-03-27 09:50:00,
2013-03-27 05:55:00,35.7,27.6,30.13,NNW,327,1.0,7.0,72,0.00,,---,0.00,0.00,VWS V14.01,2013-03-27 09:55:00,
2013-03-27 06:00:00,35.7,27.6,30.13,North,360,2.0,4.0,72,0.00,,---,0.00,0.00,VWS V14.01,2013-03-27 10:00:00,
2013-03-27 06:05:00,35.6,27.5,30.13,NW,311,0.0,5.0,72,0.00,,---,0.00,0.00,VWS V14.01,2013-03-27 10:05:00,
2013-03-27 06:10:00,35.6,27.5,30.13,West,259,0.0,6.0,72,0.00,,---,0.00,0.00,VWS V14.01,2013-03-27 10:10:00,
2013-03-27 06:15:00,35.5,27.4,30.13,WNW,291,2.0,6.0,72,0.00,,---,0.00,0.00,VWS V14.01,2013-03-27 10:15:00,
2013-03-27 06:20:00,35.5,27.4,30.14,NNW,344,1.0,6.0,72,0.00,,---,0.00,0.00,VWS V14.01,2013-03-27 10:20:00,
2013-03-27 06:25:00,35.5,27.4,30.14,SE,132,0.0,6.0,72,0.00,,---,0.00,0.00,VWS V14.01,2013-03-27 10:25:00,
2013-03-27 06:30:00,35.4,27.3,30.14,North,355,0.0,1.0,72,0.00,,---,0.00,0.00,VWS V14.01,2013-03-27 10:30:00,
2013-03-27 06:35:00,35.4,27.0,30.14,NNE,29,0.0,3.0,71,0.00,,---,0.00,0.00,VWS V14.01,2013-03-27 10:35:00,
2013-03-27 06:40:00,35.3,26.9,30.14,NNW,327,0.0,4.0,71,0.00,,---,0.00,0.00,VWS V14.01,2013-03-27 10:40:00,
2013-03-27 06:45:00,35.3,26.9,30.14,NNE,20,2.0,4.0,71,0.00,,---,0.00,0.00,VWS V14.01,2013-03-27 10:45:00,
2013-03-27 06:50:00,35.2,26.8,30.15,North,5,0.0,6.0,71,0.00,,---,0.00,0.00,VWS V14.01,2013-03-27 10:50:00,
2013-03-27 06:55:00,35.2,26.8,30.15,NW,307,1.0,6.0,71,0.00,,---,0.00,0.00,VWS V14.01,2013-03-27 10:55:00,
2013-03-27 07:00:00,35.1,26.7,30.15,WSW,258,0.0,1.0,71,0.00,,---,0.00,0.00,VWS V14.01,2013-03-27 11:00:00,
2013-03-27 07:05:00,35.2,27.1,30.16,NNE,14,4.0,6.0,72,0.00,,---,0.00,0.00,VWS V14.01,2013-03-27 11:05:00,
2013-03-27 07:10:00,35.1,27.0,30.16,NNE,30,1.0,7.0,72,0.00,,---,0.00,5.00,VWS V14.01,2013-03-27 11:10:00,
2013-03-27 07:15:00,35.1,27.0,30.16,West,279,1.0,7.0,72,0.00,,---,0.00,7.00,VWS V14.01,2013-03-27 11:15:00,
2013-03-27 07:20:00,35.1,27.0,30.16,West,275,2.0,7.0,72,0.00,,---,0.00,11.00,VWS V14.01,2013-03-27 11:20:00,
2013-03-27 07:25:00,35.1,27.0,30.16,NW,322,3.0,7.0,72,0.00,,---,0.00,12.00,VWS V14.01,2013-03-27 11:25:00,
2013-03-27 07:30:00,35.2,27.1,30.16,NNW,348,1.0,5.0,72,0.00,,---,0.00,16.00,VWS V14.01,2013-03-27 11:30:00,
2013-03-27 07:35:00,35.2,26.8,30.16,West,275,0.0,6.0,71,0.00,,---,0.00,19.00,VWS V14.01,2013-03-27 11:35:00,
2013-03-27 07:40:00,35.3,26.9,30.17,West,279,2.0,6.0,71,0.00,,---,0.00,21.00,VWS V14.01,2013-03-27 11:40:00,
2013-03-27 07:45:00,35.3,26.9,30.17,ENE,59,2.0,6.0,71,0.00,,---,0.00,25.00,VWS V14.01,2013-03-27 11:45:00,
2013-03-27 07:50:00,35.4,27.0,30.17,North,5,1.0,6.0,71,0.00,,---,0.00,28.00,VWS V14.01,2013-03-27 11:50:00,
2013-03-27 07:55:00,35.6,27.1,30.17,NNW,346,1.0,6.0,71,0.00,,---,0.00,32.00,VWS V14.01,2013-03-27 11:55:00,
2013-03-27 08:00:00,35.7,27.2,30.17,North,350,1.0,4.0,71,0.00,,---,0.00,33.00,VWS V14.01,2013-03-27 12:00:00,
2013-03-27 08:05:00,35.9,27.4,30.17,North,5,0.0,4.0,71,0.00,,---,0.00,58.00,VWS V14.01,2013-03-27 12:05:00,
2013-03-27 08:10:00,36.1,27.3,30.17,WNW,298,2.0,5.0,70,0.00,,---,0.00,100.00,VWS V14.01,2013-03-27 12:10:00,
2013-03-27 08:15:00,36.6,27.4,30.18,WSW,257,7.0,7.0,69,0.00,,---,0.00,111.00,VWS V14.01,2013-03-27 12:15:00,
2013-03-27 08:20:00,36.9,27.3,30.18,North,360,1.0,7.0,68,0.00,,---,0.00,86.00,VWS V14.01,2013-03-27 12:20:00,
2013-03-27 08:25:00,37.3,27.7,30.18,NNW,330,4.0,8.0,68,0.00,,---,0.00,44.00,VWS V14.01,2013-03-27 12:25:00,
2013-03-27 08:30:00,37.7,27.8,30.18,NNW,336,3.0,6.0,67,0.00,,---,0.00,49.00,VWS V14.01,2013-03-27 12:30:00,
2013-03-27 08:35:00,38.1,27.8,30.18,NNW,340,5.0,6.0,66,0.00,,---,0.00,97.00,VWS V14.01,2013-03-27 12:35:00,
2013-03-27 08:40:00,38.4,28.0,30.18,WSW,244,0.0,6.0,66,0.00,,---,0.00,65.00,VWS V14.01,2013-03-27 12:40:00,
2013-03-27 08:45:00,38.8,28.1,30.18,NNW,344,4.0,7.0,65,0.00,,---,0.00,60.00,VWS V14.01,2013-03-27 12:45:00,
2013-03-27 08:50:00,39.1,28.0,30.19,NNE,19,8.0,8.0,64,0.00,,---,0.00,195.00,VWS V14.01,2013-03-27 12:50:00,
2013-03-27 08:55:00,39.6,28.1,30.19,WSW,256,1.0,9.0,63,0.00,,---,0.00,113.00,VWS V14.01,2013-03-27 12:55:00,
2013-03-27 09:00:00,40.0,28.0,30.19,West,279,4.0,7.0,62,0.00,,---,0.00,202.00,VWS V14.01,2013-03-27 13:00:00,
2013-03-27 09:05:00,40.4,28.0,30.18,NE,34,1.0,10.0,61,0.00,,---,0.00,183.00,VWS V14.01,2013-03-27 13:05:00,
2013-03-27 09:10:00,40.9,27.7,30.18,NE,36,3.0,10.0,59,0.00,,---,0.00,353.00,VWS V14.01,2013-03-27 13:10:00,
2013-03-27 09:15:00,41.5,27.8,30.19,East,86,4.0,10.0,58,0.00,,---,0.00,373.00,VWS V14.01,2013-03-27 13:15:00,
2013-03-27 09:20:00,41.9,27.4,30.19,SW,232,2.0,13.0,56,0.00,,---,0.00,380.00,VWS V14.01,2013-03-27 13:20:00,
2013-03-27 09:25:00,42.3,27.3,30.19,NNE,15,7.0,13.0,55,0.00,,---,0.00,406.00,VWS V14.01,2013-03-27 13:25:00,
2013-03-27 09:30:00,42.6,26.7,30.19,WSW,254,3.0,9.0,53,0.00,,---,0.00,285.00,VWS V14.01,2013-03-27 13:30:00,
2013-03-27 09:35:00,42.9,26.5,30.19,South,169,3.0,13.0,52,0.00,,---,0.00,441.00,VWS V14.01,2013-03-27 13:35:00,
2013-03-27 09:40:00,43.2,26.8,30.19,WSW,238,3.0,13.0,52,0.00,,---,0.00,431.00,VWS V14.01,2013-03-27 13:40:00,
2013-03-27 09:45:00,43.3,26.9,30.19,North,355,9.0,13.0,52,0.00,,---,0.00,63.00,VWS V14.01,2013-03-27 13:45:00,
2013-03-27 09:50:00,43.3,26.4,30.19,NW,304,1.0,13.0,51,0.00,,---,0.00,149.00,VWS V14.01,2013-03-27 13:50:00,
2013-03-27 09:55:00,43.4,26.0,30.19,SW,215,6.0,13.0,50,0.00,,---,0.00,338.00,VWS V14.01,2013-03-27 13:55:00,
2013-03-27 10:00:00,43.5,26.1,30.19,West,281,7.0,8.0,50,0.00,,---,0.00,169.00,VWS V14.01,2013-03-27 14:00:00,
2013-03-27 10:05:00,43.7,26.8,30.18,NNW,335,7.0,9.0,51,0.00,,---,0.00,204.00,VWS V14.01,2013-03-27 14:05:00,
2013-03-27 10:10:00,44.0,26.1,30.18,NW,306,4.0,15.0,49,0.00,,---,0.00,109.00,VWS V14.01,2013-03-27 14:10:00,
2013-03-27 10:15:00,44.4,26.5,30.18,NNE,18,1.0,15.0,49,0.00,,---,0.00,371.00,VWS V14.01,2013-03-27 14:15:00,
2013-03-27 10:20:00,44.8,26.3,30.19,NNW,338,8.0,15.0,48,0.00,,---,0.00,469.00,VWS V14.01,2013-03-27 14:20:00,
2013-03-27 10:25:00,45.0,26.0,30.18,East,90,4.0,18.0,47,0.00,,---,0.00,171.00,VWS V14.01,2013-03-27 14:25:00,
2013-03-27 10:30:00,45.2,26.7,30.18,SW,232,4.0,9.0,48,0.00,,---,0.00,601.00,VWS V14.01,2013-03-27 14:30:00,
2013-03-27 10:35:00,45.3,25.8,30.18,NW,309,3.0,9.0,46,0.00,,---,0.00,272.00,VWS V14.01,2013-03-27 14:35:00,
2013-03-27 10:40:00,45.5,26.5,30.18,NNE,19,7.0,12.0,47,0.00,,---,0.00,79.00,VWS V14.01,2013-03-27 14:40:00,
2013-03-27 10:45:00,45.5,25.9,30.18,West,271,4.0,18.0,46,0.00,,---,0.00,125.00,VWS V14.01,2013-03-27 14:45:00,
2013-03-27 10:50:00,45.7,26.1,30.18,North,355,7.0,18.0,46,0.00,,---,0.00,216.00,VWS V14.01,2013-03-27 14:50:00,
2013-03-27 10:55:00,45.8,25.7,30.18,WSW,246,6.0,18.0,45,0.00,,---,0.00,241.00,VWS V14.01,2013-03-27 14:55:00,
2013-03-27 11:00:00,46.4,27.3,30.18,SSW,202,4.0,5.0,47,0.00,,---,0.00,612.00,VWS V14.01,2013-03-27 15:00:00,
2013-03-27 11:05:00,46.7,26.5,30.18,WNW,284,4.0,13.0,45,0.00,,---,0.00,207.00,VWS V14.01,2013-03-27 15:05:00,
2013-03-27 11:10:00,47.1,26.9,30.18,NNE,16,7.0,13.0,45,0.00,,---,0.00,554.00,VWS V14.01,2013-03-27 15:10:00,
2013-03-27 11:15:00,47.2,25.9,30.18,East,100,5.0,14.0,43,0.00,,---,0.00,715.00,VWS V14.01,2013-03-27 15:15:00,
2013-03-27 11:20:00,47.3,26.5,30.18,WSW,250,2.0,14.0,44,0.00,,---,0.00,728.00,VWS V14.01,2013-03-27 15:20:00,
2013-03-27 11:25:00,47.3,26.5,30.18,WNW,301,6.0,14.0,44,0.00,,---,0.00,742.00,VWS V14.01,2013-03-27 15:25:00,
2013-03-27 11:30:00,47.7,26.9,30.18,West,265,1.0,5.0,44,0.00,,---,0.00,744.00,VWS V14.01,2013-03-27 15:30:00,
2013-03-27 11:35:00,48.3,28.0,30.18,North,360,2.0,7.0,45,0.00,,---,0.00,759.00,VWS V14.01,2013-03-27 15:35:00,
2013-03-27 11:40:00,48.6,28.2,30.18,WSW,245,5.0,8.0,45,0.00,,---,0.00,786.00,VWS V14.01,2013-03-27 15:40:00,
2013-03-27 11:45:00,48.3,26.9,30.18,North,351,3.0,13.0,43,0.00,,---,0.00,812.00,VWS V14.01,2013-03-27 15:45:00,
2013-03-27 11:50:00,48.6,27.1,30.18,NE,36,4.0,13.0,43,0.00,,---,0.00,276.00,VWS V14.01,2013-03-27 15:50:00,
2013-03-27 11:55:00,48.5,25.9,30.18,SW,225,5.0,14.0,41,0.00,,---,0.00,183.00,VWS V14.01,2013-03-27 15:55:00,
2013-03-27 12:00:00,47.8,25.8,30.18,NNE,14,4.0,5.0,42,0.00,,---,0.00,935.00,VWS V14.01,2013-03-27 16:00:00,
2013-03-27 12:05:00,47.6,25.7,30.18,NNE,12,2.0,9.0,42,0.00,,---,0.00,207.00,VWS V14.01,2013-03-27 16:05:00,
2013-03-27 12:10:00,47.4,26.0,30.18,NNE,20,2.0,9.0,43,0.00,,---,0.00,269.00,VWS V14.01,2013-03-27 16:10:00,
2013-03-27 12:15:00,47.3,26.0,30.18,NNW,343,4.0,13.0,43,0.00,,---,0.00,185.00,VWS V14.01,2013-03-27 16:15:00,
2013-03-27 12:20:00,47.9,26.5,30.18,NE,44,4.0,16.0,43,0.00,,---,0.00,882.00,VWS V14.01,2013-03-27 16:20:00,
2013-03-27 12:25:00,48.9,26.8,30.17,North,10,4.0,16.0,42,0.00,,---,0.00,956.00,VWS V14.01,2013-03-27 16:25:00,
2013-03-27 12:30:00,49.6,26.9,30.17,SW,221,6.0,7.0,41,0.00,,---,0.00,589.00,VWS V14.01,2013-03-27 16:30:00,
2013-03-27 12:35:00,49.7,27.0,30.17,North,10,9.0,11.0,41,0.00,,---,0.00,251.00,VWS V14.01,2013-03-27 16:35:00,
2013-03-27 12:40:00,49.7,26.4,30.17,NNE,17,4.0,14.0,40,0.00,,---,0.00,241.00,VWS V14.01,2013-03-27 16:40:00,
2013-03-27 12:45:00,49.4,26.7,30.17,NNE,19,5.0,14.0,41,0.00,,---,0.00,392.00,VWS V14.01,2013-03-27 16:45:00,
2013-03-27 12:50:00,49.0,25.8,30.18,WSW,247,4.0,14.0,40,0.00,,---,0.00,213.00,VWS V14.01,2013-03-27 16:50:00,
2013-03-27 12:55:00,48.9,25.7,30.17,WSW,254,5.0,14.0,40,0.00,,---,0.00,148.00,VWS V14.01,2013-03-27 16:55:00,
2013-03-27 13:00:00,49.0,25.8,30.17,NNW,344,9.0,9.0,40,0.00,,---,0.00,113.00,VWS V14.01,2013-03-27 17:00:00,
2013-03-27 13:05:00,49.0,25.1,30.17,West,273,5.0,12.0,39,0.00,,---,0.00,91.00,VWS V14.01,2013-03-27 17:05:00,
2013-03-27 13:10:00,49.1,25.8,30.17,North,9,8.0,12.0,40,0.00,,---,0.00,120.00,VWS V14.01,2013-03-27 17:10:00,
2013-03-27 13:15:00,49.2,25.3,30.17,NNE,15,5.0,14.0,39,0.00,,---,0.00,218.00,VWS V14.01,2013-03-27 17:15:00,
2013-03-27 13:20:00,49.7,25.8,30.17,North,9,4.0,14.0,39,0.00,,---,0.00,162.00,VWS V14.01,2013-03-27 17:20:00,
2013-03-27 13:25:00,50.4,26.4,30.17,ENE,69,5.0,14.0,39,0.00,,---,0.00,257.00,VWS V14.01,2013-03-27 17:25:00,
2013-03-27 13:30:00,50.7,26.7,30.17,ENE,65,9.0,9.0,39,0.00,,---,0.00,278.00,VWS V14.01,2013-03-27 17:30:00,
2013-03-27 13:35:00,50.0,26.0,30.17,West,265,0.0,14.0,39,0.00,,---,0.00,819.00,VWS V14.01,2013-03-27 17:35:00,
2013-03-27 13:40:00,50.2,26.8,30.16,SW,227,2.0,14.0,40,0.00,,---,0.00,1069.00,VWS V14.01,2013-03-27 17:40:00,
2013-03-27 13:45:00,50.6,26.0,30.17,WSW,258,6.0,14.0,38,0.00,,---,0.00,295.00,VWS V14.01,2013-03-27 17:45:00,
2013-03-27 13:50:00,51.4,27.3,30.17,NNW,348,2.0,14.0,39,0.00,,---,0.00,898.00,VWS V14.01,2013-03-27 17:50:00,
2013-03-27 13:55:00,51.5,26.8,30.16,WNW,297,3.0,14.0,38,0.00,,---,0.00,997.00,VWS V14.01,2013-03-27 17:55:00,
2013-03-27 14:00:00,51.1,25.8,30.16,West,271,1.0,1.0,37,0.00,,---,0.00,1025.00,VWS V14.01,2013-03-27 18:00:00,
2013-03-27 14:05:00,51.2,25.8,30.16,NNE,21,6.0,16.0,37,0.00,,---,0.00,250.00,VWS V14.01,2013-03-27 18:05:00,
2013-03-27 14:10:00,51.0,26.3,30.16,NNW,336,10.0,18.0,38,0.00,,---,0.00,902.00,VWS V14.01,2013-03-27 18:10:00,
2013-03-27 14:15:00,51.3,24.6,30.15,West,275,6.0,18.0,35,0.00,,---,0.00,965.00,VWS V14.01,2013-03-27 18:15:00,
2013-03-27 14:20:00,51.9,25.8,30.15,WSW,258,6.0,18.0,36,0.00,,---,0.00,833.00,VWS V14.01,2013-03-27 18:20:00,
2013-03-27 14:25:00,52.2,26.1,30.15,North,355,5.0,18.0,36,0.00,,---,0.00,984.00,VWS V14.01,2013-03-27 18:25:00,
2013-03-27 14:30:00,52.8,25.2,30.15,WSW,257,5.0,5.0,34,0.00,,---,0.00,926.00,VWS V14.01,2013-03-27 18:30:00,
2013-03-27 14:35:00,52.2,24.7,30.15,SW,236,7.0,12.0,34,0.00,,---,0.00,884.00,VWS V14.01,2013-03-27 18:35:00,
2013-03-27 14:40:00,52.1,25.3,30.15,SW,223,1.0,12.0,35,0.00,,---,0.00,886.00,VWS V14.01,2013-03-27 18:40:00,
2013-03-27 14:45:00,52.9,26.0,30.15,West,267,5.0,12.0,35,0.00,,---,0.00,886.00,VWS V14.01,2013-03-27 18:45:00,
2013-03-27 14:50:00,51.9,25.1,30.15,SW,230,2.0,13.0,35,0.00,,---,0.00,847.00,VWS V14.01,2013-03-27 18:50:00,
2013-03-27 14:55:00,52.3,26.2,30.15,West,272,5.0,13.0,36,0.00,,---,0.00,838.00,VWS V14.01,2013-03-27 18:55:00,
2013-03-27 15:00:00,52.2,24.7,30.14,NNW,335,3.0,5.0,34,0.00,,---,0.00,830.00,VWS V14.01,2013-03-27 19:00:00,
2013-03-27 15:05:00,52.3,25.5,30.15,NW,314,2.0,8.0,35,0.00,,---,0.00,809.00,VWS V14.01,2013-03-27 19:05:00,
2013-03-27 15:10:00,52.1,23.9,30.14,WSW,252,7.0,14.0,33,0.00,,---,0.00,809.00,VWS V14.01,2013-03-27 19:10:00,
2013-03-27 15:15:00,52.0,24.5,30.15,West,275,5.0,14.0,34,0.00,,---,0.00,856.00,VWS V14.01,2013-03-27 19:15:00,
2013-03-27 15:20:00,52.4,24.2,30.14,SW,236,1.0,14.0,33,0.00,,---,0.00,271.00,VWS V14.01,2013-03-27 19:20:00,
2013-03-27 15:25:00,52.7,24.4,30.14,North,9,7.0,14.0,33,0.00,,---,0.00,288.00,VWS V14.01,2013-03-27 19:25:00,
2013-03-27 15:30:00,51.8,22.9,30.15,NNW,347,9.0,10.0,32,0.00,,---,0.00,186.00,VWS V14.01,2013-03-27 19:30:00,
2013-03-27 15:35:00,51.4,24.0,30.15,ENE,57,6.0,13.0,34,0.00,,---,0.00,754.00,VWS V14.01,2013-03-27 19:35:00,
2013-03-27 15:40:00,51.7,23.5,30.14,West,266,3.0,13.0,33,0.00,,---,0.00,744.00,VWS V14.01,2013-03-27 19:40:00,
2013-03-27 15:45:00,51.8,24.3,30.14,West,261,6.0,13.0,34,0.00,,---,0.00,722.00,VWS V14.01,2013-03-27 19:45:00,
2013-03-27 15:50:00,52.3,24.1,30.14,NW,319,5.0,14.0,33,0.00,,---,0.00,752.00,VWS V14.01,2013-03-27 19:50:00,
2013-03-27 15:55:00,52.0,23.8,30.14,NNW,348,12.0,14.0,33,0.00,,---,0.00,800.00,VWS V14.01,2013-03-27 19:55:00,
2013-03-27 16:00:00,51.4,23.3,30.15,NW,325,4.0,6.0,33,0.00,,---,0.00,731.00,VWS V14.01,2013-03-27 20:00:00,
2013-03-27 16:05:00,51.7,23.5,30.14,WNW,296,3.0,12.0,33,0.00,,---,0.00,714.00,VWS V14.01,2013-03-27 20:05:00,
2013-03-27 16:10:00,52.3,24.8,30.14,WSW,241,1.0,12.0,34,0.00,,---,0.00,724.00,VWS V14.01,2013-03-27 20:10:00,
2013-03-27 16:15:00,52.8,23.8,30.14,WSW,257,12.0,12.0,32,0.00,,---,0.00,675.00,VWS V14.01,2013-03-27 20:15:00,
2013-03-27 16:20:00,52.1,23.9,30.14,NW,312,2.0,12.0,33,0.00,,---,0.00,142.00,VWS V14.01,2013-03-27 20:20:00,
2013-03-27 16:25:00,51.2,23.8,30.14,SSW,193,4.0,12.0,34,0.00,,---,0.00,650.00,VWS V14.01,2013-03-27 20:25:00,
2013-03-27 16:30:00,51.7,25.0,30.14,North,5,7.0,8.0,35,0.00,,---,0.00,642.00,VWS V14.01,2013-03-27 20:30:00,
2013-03-27 16:35:00,51.2,23.8,30.14,NW,321,9.0,13.0,34,0.00,,---,0.00,619.00,VWS V14.01,2013-03-27 20:35:00,
2013-03-27 16:40:00,51.1,24.4,30.14,NNW,346,5.0,13.0,35,0.00,,---,0.00,592.00,VWS V14.01,2013-03-27 20:40:00,
2013-03-27 16:45:00,51.7,24.3,30.14,NNW,337,3.0,14.0,34,0.00,,---,0.00,606.00,VWS V14.01,2013-03-27 20:45:00,
2013-03-27 16:50:00,52.1,24.6,30.14,NE,38,2.0,14.0,34,0.00,,---,0.00,592.00,VWS V14.01,2013-03-27 20:50:00,
2013-03-27 16:55:00,52.2,24.7,30.14,North,360,4.0,14.0,34,0.00,,---,0.00,548.00,VWS V14.01,2013-03-27 20:55:00,
2013-03-27 17:00:00,51.7,24.3,30.14,WSW,258,4.0,7.0,34,0.00,,---,0.00,508.00,VWS V14.01,2013-03-27 21:00:00,
2013-03-27 17:05:00,51.2,23.8,30.14,NW,311,1.0,11.0,34,0.00,,---,0.00,67.00,VWS V14.01,2013-03-27 21:05:00,
2013-03-27 17:10:00,50.6,24.0,30.14,NNW,331,4.0,11.0,35,0.00,,---,0.00,461.00,VWS V14.01,2013-03-27 21:10:00,
2013-03-27 17:15:00,50.7,24.7,30.14,WSW,253,0.0,11.0,36,0.00,,---,0.00,446.00,VWS V14.01,2013-03-27 21:15:00,
2013-03-27 17:20:00,51.3,24.6,30.14,WSW,246,4.0,11.0,35,0.00,,---,0.00,443.00,VWS V14.01,2013-03-27 21:20:00,
2013-03-27 17:25:00,51.4,24.0,30.14,North,350,4.0,14.0,34,0.00,,---,0.00,439.00,VWS V14.01,2013-03-27 21:25:00,
2013-03-27 17:30:00,51.7,23.5,30.14,North,355,7.0,13.0,33,0.00,,---,0.00,431.00,VWS V14.01,2013-03-27 21:30:00,
2013-03-27 17:35:00,51.7,23.5,30.14,SW,235,1.0,15.0,33,0.00,,---,0.00,403.00,VWS V14.01,2013-03-27 21:35:00,
2013-03-27 17:40:00,51.9,24.4,30.15,North,9,1.0,15.0,34,0.00,,---,0.00,371.00,VWS V14.01,2013-03-27 21:40:00,
2013-03-27 17:45:00,51.8,23.6,30.14,SW,230,13.0,15.0,33,0.00,,---,0.00,339.00,VWS V14.01,2013-03-27 21:45:00,
2013-03-27 17:50:00,51.5,23.4,30.14,West,277,2.0,15.0,33,0.00,,---,0.00,327.00,VWS V14.01,2013-03-27 21:50:00,
2013-03-27 17:55:00,51.3,23.2,30.15,SW,225,4.0,15.0,33,0.00,,---,0.00,308.00,VWS V14.01,2013-03-27 21:55:00,
2013-03-27 18:00:00,51.3,23.2,30.15,North,5,11.0,11.0,33,0.00,,---,0.00,276.00,VWS V14.01,2013-03-27 22:00:00,
2013-03-27 18:05:00,50.9,22.1,30.15,SSW,211,1.0,12.0,32,0.00,,---,0.00,251.00,VWS V14.01,2013-03-27 22:05:00,
2013-03-27 18:10:00,50.6,22.6,30.15,NNE,13,1.0,12.0,33,0.00,,---,0.00,232.00,VWS V14.01,2013-03-27 22:10:00,
2013-03-27 18:15:00,50.5,23.2,30.15,NNE,19,5.0,12.0,34,0.00,,---,0.00,211.00,VWS V14.01,2013-03-27 22:15:00,
2013-03-27 18:20:00,50.3,22.3,30.15,NW,324,2.0,12.0,33,0.00,,---,0.00,193.00,VWS V14.01,2013-03-27 22:20:00,
2013-03-27 18:25:00,50.0,22.0,30.15,NNW,343,1.0,12.0,33,0.00,,---,0.00,172.00,VWS V14.01,2013-03-27 22:25:00,
2013-03-27 18:30:00,49.7,21.8,30.15,North,360,11.0,11.0,33,0.00,,---,0.00,149.00,VWS V14.01,2013-03-27 22:30:00,
2013-03-27 18:35:00,49.3,22.1,30.16,SSW,211,7.0,15.0,34,0.00,,---,0.00,130.00,VWS V14.01,2013-03-27 22:35:00,
2013-03-27 18:40:00,48.8,21.7,30.16,WNW,284,7.0,15.0,34,0.00,,---,0.00,35.00,VWS V14.01,2013-03-27 22:40:00,
2013-03-27 18:45:00,48.4,22.0,30.16,WSW,240,3.0,15.0,35,0.00,,---,0.00,30.00,VWS V14.01,2013-03-27 22:45:00,
2013-03-27 18:50:00,48.2,22.5,30.17,SW,218,1.0,15.0,36,0.00,,---,0.00,28.00,VWS V14.01,2013-03-27 22:50:00,
2013-03-27 18:55:00,47.9,22.2,30.17,NNE,17,3.0,15.0,36,0.00,,---,0.00,25.00,VWS V14.01,2013-03-27 22:55:00,
2013-03-27 19:00:00,47.6,22.0,30.17,SW,219,1.0,3.0,36,0.00,,---,0.00,21.00,VWS V14.01,2013-03-27 23:00:00,
2013-03-27 19:05:00,47.4,21.8,30.17,NW,326,1.0,4.0,36,0.00,,---,0.00,19.00,VWS V14.01,2013-03-27 23:05:00,
2013-03-27 19:10:00,47.1,21.5,30.17,NNW,336,1.0,10.0,36,0.00,,---,0.00,18.00,VWS V14.01,2013-03-27 23:10:00,
2013-03-27 19:15:00,46.9,21.4,30.17,North,355,0.0,10.0,36,0.00,,---,0.00,14.00,VWS V14.01,2013-03-27 23:15:00,
2013-03-27 19:20:00,46.7,21.8,30.18,North,5,7.0,10.0,37,0.00,,---,0.00,11.00,VWS V14.01,2013-03-27 23:20:00,
2013-03-27 19:25:00,46.5,21.6,30.18,NNE,24,9.0,12.0,37,0.00,,---,0.00,9.00,VWS V14.01,2013-03-27 23:25:00,
2013-03-27 19:30:00,46.3,21.5,30.18,North,5,3.0,5.0,37,0.00,,---,0.00,5.00,VWS V14.01,2013-03-27 23:30:00,
2013-03-27 19:35:00,46.1,21.9,30.18,NNW,332,0.0,6.0,38,0.00,,---,0.00,0.00,VWS V14.01,2013-03-27 23:35:00,
2013-03-27 19:40:00,45.9,21.7,30.19,WNW,285,1.0,8.0,38,0.00,,---,0.00,0.00,VWS V14.01,2013-03-27 23:40:00,
2013-03-27 19:45:00,45.8,22.3,30.19,WNW,288,0.0,8.0,39,0.00,,---,0.00,0.00,VWS V14.01,2013-03-27 23:45:00,
2013-03-27 19:50:00,45.6,22.1,30.19,North,350,1.0,8.0,39,0.00,,---,0.00,0.00,VWS V14.01,2013-03-27 23:50:00,
2013-03-27 19:55:00,45.4,22.5,30.20,NW,313,0.0,8.0,40,0.00,,---,0.00,0.00,VWS V14.01,2013-03-27 23:55:00,
2013-03-27 20:00:00,45.1,22.2,30.20,NW,309,0.0,0.0,40,0.00,,---,0.00,0.00,VWS V14.01,2013-03-28 00:00:00,
2013-03-27 20:05:00,44.9,22.6,30.20,WNW,299,1.0,6.0,41,0.00,,---,0.00,0.00,VWS V14.01,2013-03-28 00:05:00,
2013-03-27 20:10:00,44.7,22.5,30.20,NE,41,1.0,6.0,41,0.00,,---,0.00,0.00,VWS V14.01,2013-03-28 00:10:00,
2013-03-27 20:14:00,44.5,22.3,30.20,NNW,340,0.0,6.0,41,0.00,,---,0.00,0.00,VWS V14.01,2013-03-28 00:14:00,
2013-03-27 20:19:00,44.3,22.7,30.20,NE,43,0.0,6.0,42,0.00,,---,0.00,0.00,VWS V14.01,2013-03-28 00:19:00,
2013-03-27 20:24:00,44.2,22.6,30.20,NE,43,0.0,6.0,42,0.00,,---,0.00,0.00,VWS V14.01,2013-03-28 00:24:00,
2013-03-27 20:29:00,44.0,23.0,30.20,NE,43,1.0,1.0,43,0.00,,---,0.00,0.00,VWS V14.01,2013-03-28 00:29:00,
2013-03-27 20:34:00,43.8,22.8,30.20,North,355,0.0,2.0,43,0.00,,---,0.00,0.00,VWS V14.01,2013-03-28 00:34:00,
2013-03-27 20:39:00,43.5,23.0,30.20,North,360,1.0,2.0,44,0.00,,---,0.00,0.00,VWS V14.01,2013-03-28 00:39:00,
2013-03-27 20:44:00,43.4,23.0,30.21,North,360,0.0,2.0,44,0.00,,---,0.00,0.00,VWS V14.01,2013-03-28 00:44:00,
2013-03-27 20:49:00,43.2,22.8,30.21,North,360,0.0,2.0,44,0.00,,---,0.00,0.00,VWS V14.01,2013-03-28 00:49:00,
2013-03-27 20:54:00,43.0,22.6,30.21,North,360,0.0,2.0,44,0.00,,---,0.00,0.00,VWS V14.01,2013-03-28 00:54:00,
2013-03-27 20:59:00,42.8,22.4,30.21,West,263,0.0,1.0,44,0.00,,---,0.00,0.00,VWS V14.01,2013-03-28 00:59:00,
2013-03-27 21:04:00,42.6,22.8,30.20,West,263,0.0,2.0,45,0.00,,---,0.00,0.00,VWS V14.01,2013-03-28 01:04:00,
2013-03-27 21:09:00,42.5,23.2,30.21,West,263,0.0,2.0,46,0.00,,---,0.00,0.00,VWS V14.01,2013-03-28 01:09:00,
2013-03-27 21:14:00,42.3,23.0,30.21,West,263,0.0,2.0,46,0.00,,---,0.00,0.00,VWS V14.01,2013-03-28 01:14:00,
2013-03-27 21:19:00,42.1,26.7,30.21,West,263,0.0,2.0,54,0.00,,---,0.00,0.00,VWS V14.01,2013-03-28 01:19:00,
2013-03-27 21:24:00,41.9,26.0,30.22,West,263,0.0,2.0,53,0.00,,---,0.00,0.00,VWS V14.01,2013-03-28 01:24:00,
2013-03-27 21:29:00,41.5,24.7,30.22,West,263,0.0,0.0,51,0.00,,---,0.00,0.00,VWS V14.01,2013-03-28 01:29:00,
2013-03-27 21:34:00,41.1,23.9,30.22,West,263,0.0,1.0,50,0.00,,---,0.00,0.00,VWS V14.01,2013-03-28 01:34:00,
2013-03-27 21:39:00,40.8,24.5,30.22,West,263,0.0,2.0,52,0.00,,---,0.00,0.00,VWS V14.01,2013-03-28 01:39:00,
2013-03-27 21:44:00,40.6,24.8,30.22,West,263,0.0,2.0,53,0.00,,---,0.00,0.00,VWS V14.01,2013-03-28 01:44:00,
2013-03-27 21:49:00,40.4,24.6,30.22,West,263,0.0,2.0,53,0.00,,---,0.00,0.00,VWS V14.01,2013-03-28 01:49:00,
2013-03-27 21:54:00,40.1,24.8,30.22,West,263,0.0,2.0,54,0.00,,---,0.00,0.00,VWS V14.01,2013-03-28 01:54:00,
2013-03-27 21:59:00,39.8,25.0,30.22,West,263,0.0,0.0,55,0.00,,---,0.00,0.00,VWS V14.01,2013-03-28 01:59:00,
2013-03-27 22:04:00,39.5,25.1,30.22,West,263,0.0,0.0,56,0.00,,---,0.00,0.00,VWS V14.01,2013-03-28 02:04:00,
2013-03-27 22:09:00,39.2,24.8,30.22,West,263,0.0,0.0,56,0.00,,---,0.00,0.00,VWS V14.01,2013-03-28 02:09:00,
2013-03-27 22:14:00,38.8,24.9,30.22,West,263,0.0,0.0,57,0.00,,---,0.00,0.00,VWS V14.01,2013-03-28 02:14:00,
2013-03-27 22:19:00,38.5,24.6,30.22,West,263,0.0,0.0,57,0.00,,---,0.00,0.00,VWS V14.01,2013-03-28 02:19:00,
2013-03-27 22:24:00,38.3,25.2,30.22,West,263,0.0,0.0,59,0.00,,---,0.00,0.00,VWS V14.01,2013-03-28 02:24:00,
2013-03-27 22:29:00,38.0,25.0,30.21,West,263,0.0,0.0,59,0.00,,---,0.00,0.00,VWS V14.01,2013-03-28 02:29:00,
2013-03-27 22:34:00,37.7,24.7,30.21,West,263,0.0,1.0,59,0.00,,---,0.00,0.00,VWS V14.01,2013-03-28 02:34:00,
2013-03-27 22:39:00,37.5,24.9,30.21,WNW,288,0.0,2.0,60,0.00,,---,0.00,0.00,VWS V14.01,2013-03-28 02:39:00,
2013-03-27 22:44:00,37.4,24.4,30.21,WNW,288,1.0,2.0,59,0.00,,---,0.00,0.00,VWS V14.01,2013-03-28 02:44:00,
2013-03-27 22:49:00,37.4,24.4,30.21,WNW,288,0.0,2.0,59,0.00,,---,0.00,0.00,VWS V14.01,2013-03-28 02:49:00,
2013-03-27 22:54:00,37.4,24.8,30.22,WNW,288,0.0,2.0,60,0.00,,---,0.00,0.00,VWS V14.01,2013-03-28 02:54:00,
2013-03-27 22:59:00,37.4,25.2,30.22,WNW,288,0.0,2.0,61,0.00,,---,0.00,0.00,VWS V14.01,2013-03-28 02:59:00,
2013-03-27 23:04:00,37.4,25.6,30.22,WNW,288,0.0,1.0,62,0.00,,---,0.00,0.00,VWS V14.01,2013-03-28 03:04:00,
2013-03-27 23:09:00,37.3,25.5,30.22,WNW,288,0.0,1.0,62,0.00,,---,0.00,0.00,VWS V14.01,2013-03-28 03:09:00,
2013-03-27 23:14:00,37.2,25.8,30.22,WNW,288,0.0,1.0,63,0.00,,---,0.00,0.00,VWS V14.01,2013-03-28 03:14:00,
2013-03-27 23:19:00,36.9,25.9,30.22,WNW,288,1.0,1.0,64,0.00,,---,0.00,0.00,VWS V14.01,2013-03-28 03:19:00,
2013-03-27 23:24:00,36.6,25.6,30.22,WNW,288,0.0,1.0,64,0.00,,---,0.00,0.00,VWS V14.01,2013-03-28 03:24:00,
2013-03-27 23:29:00,36.4,25.4,30.22,WNW,288,0.0,1.0,64,0.00,,---,0.00,0.00,VWS V14.01,2013-03-28 03:29:00,
2013-03-27 23:34:00,36.3,25.7,30.22,WNW,288,0.0,0.0,65,0.00,,---,0.00,0.00,VWS V14.01,2013-03-28 03:34:00,
2013-03-27 23:39:00,36.1,25.5,30.22,WNW,288,0.0,0.0,65,0.00,,---,0.00,0.00,VWS V14.01,2013-03-28 03:39:00,
2013-03-27 23:44:00,35.9,25.7,30.22,WNW,288,1.0,2.0,66,0.00,,---,0.00,0.00,VWS V14.01,2013-03-28 03:44:00,
2013-03-27 23:49:00,35.7,25.5,30.22,WNW,288,0.0,2.0,66,0.00,,---,0.00,0.00,VWS V14.01,2013-03-28 03:49:00,
2013-03-27 23:54:00,35.5,25.3,30.22,WNW,288,0.0,2.0,66,0.00,,---,0.00,0.00,VWS V14.01,2013-03-28 03:54:00,
2013-03-27 23:59:00,35.3,25.1,30.22,WNW,288,0.0,2.0,66,0.00,,---,0.00,0.00,VWS V14.01,2013-03-28 03:59:00,